{"data":{"norad_id":45462,"epoch":"2026-05-24T23:58:34.142592Z","epoch_age_seconds":68910,"freshness":"FRESH","line1":"1 45462U 20021C   26144.99900628  .00002516  00000+0  18736-3 0  9997","line2":"2 45462  34.9966 349.8603 0001666 232.9890 127.0666 15.02592825336925","mean_motion":15.02592825,"eccentricity":0.0001666,"inclination_deg":34.9966,"raan_deg":349.8603,"arg_perigee_deg":232.989,"mean_anomaly_deg":127.0666,"bstar":0.00018736,"rev_number":33692,"period_min":95.834345542013,"perigee_km":557.74892021822,"apogee_km":560.06034248979,"semimajor_km":6937.041631354,"source":"CELESTRAK","updated_at":"2026-05-25T13:37:56.182119Z"}}